Regional Weather Roundup
Issued by NWS

Home | Current Version | Previous Version | Text Only | Print | Product List | Glossary On
Versions: 1 2 3 4 5 6 7 8 9 10 11 12 13 14 15 16 17 18 19 20 21 22 23 24 25 26 27 28 29 30 31 32 33 34 35 36 37 38 39 40 41 42 43 44 45 46 47 48 49 50
000
ASUS44 KJAN 290210
RWRMS

MISSISSIPPI HOURLY WEATHER ROUNDUP
NATIONAL WEATHER SERVICE JACKSON MS
900 PM CDT THU MAY 28 2015

NOTE: "FAIR: INDICATES FEW OR NO CLOUDS BELOW 12,000 FEET WITH NO
SIGNIFICANT WEATHER AND/OR OBSTRUCTIONS TO VISIBILITY.

MSZ001>002-007>008-010>013-018>021-025>028-034>036-290300-
NORTHWEST MISSISSIPPI

CITY           SKY/WX    TMP DP  RH WIND       PRES   REMARKS
CLARKSDALE       N/A     73  73 100 MISG      30.06S
CLEVELAND      FAIR      75  72  91 S5        30.05S
GREENWOOD      CLEAR     76  67  73 E6        30.06S
GREENVILLE     MOCLDY    75  72  90 SE3       30.05R
OLIVE BRANCH   CLEAR     73  72  94 SE6       30.08S
OXFORD         FAIR      68  66  94 E5        30.11R
TUNICA         CLEAR     73  68  83 SE7       30.06R
$$

MSZ003>006-009-014>017-022>024-029>033-037>039-290300-
NORTHEAST MISSISSIPPI

CITY           SKY/WX    TMP DP  RH WIND       PRES   REMARKS
COLUMBUS AFB   PTCLDY    71  71 100 CALM      30.10R
CORINTH        FAIR      72  68  88 CALM      30.10R
GOLDN TRIANGLE CLOUDY    75  68  78 CALM      30.10R
STARKVILLE     MOCLDY    73  68  83 E3        30.10S
TUPELO         PTCLDY    75  66  73 SE5       30.10R
$$

MSZ040-058-290300-
CENTRAL MISSISSIPPI

CITY           SKY/WX    TMP DP  RH WIND       PRES   REMARKS
JACKSON INTL   PTCLDY    77  70  79 E5        30.07R
JACKSON HAWKNS PTCLDY    78  68  71 NE3       30.07R
MERIDIAN KEY   MOCLDY    73  67  81 S5        30.11R
MERIDIAN NAS   MOCLDY    73  69  87 SE7       30.11R
RAYMOND        FAIR      73  70  88 CALM      30.06S
VICKSBURG      PTCLDY    75  71  87 N3        30.05S
$$

MSZ059>079-290300-
SOUTH MISSISSIPPI

CITY           SKY/WX    TMP DP  RH WIND       PRES   REMARKS
BROOKHAVEN       N/A     73  73 100 CALM      30.09R
HATTIESBURG    MOCLDY    77  71  82 E3        30.10R
MCCOMB         MOCLDY    80  70  71 CALM      30.06S
NATCHEZ        CLEAR     75  72  88 CALM      30.05F
PINE BELT      MOCLDY    75 N/A N/A S5        30.11R
$$

MSZ080>082-290300-
COASTAL MISSISSIPPI

CITY           SKY/WX    TMP DP  RH WIND       PRES   REMARKS
BAY ST LOUIS   PTCLDY    77  70  78 MISG      30.08R
BILOXI         CLEAR     79  71  76 S5        30.08R
PASCAGOULA     PTCLDY    73  70  90 CALM      30.10R
GULFPORT       PTCLDY    79  70  74 SE6       30.08R
$$



USA.gov is the U.S. government's official web portal to all federal, state and local government web resources and services.